Location: Hains Lake
(37.8540°N, 99.8578°W)
Time: 20:57:11
(UTC+00:00)

Vanguard 1 - Pass Details

Date: 29 November 2022
Orbit: 650 x 3831 km, 34.2° (Epoch: 05 February)

Event Time Altitude Azimuth Distance (km) Brightness Sun altitude
Exits shadow 09:17:36 22° 123° (ESE) 2,737 12.5 -50.1°
Drops below altitude 10° 09:21:01 10° 117° (ESE) 3,938 13.5 -49.4°
Sets 09:25:24 0° 114° (ESE) 5,455 14.4 -48.6°
